E1763 Weather Reports


time (UTC)temp
F
wind
direction
speed
knots
gust
knots
rain 1hr
in
rain 24hr
in
rain mn
in
humidity
%
barometer
mb
20260506140022 52 39 0.0 0.0 0.00 0.00 0.00 96 1015.4
20260506134520 52 300 0.0 0.0 0.00 0.00 0.00 96 1015.3
20260506133019 52 300 0.0 0.0 0.00 0.00 0.00 95 1015.1
20260506131521 52 300 0.0 0.0 0.00 0.00 0.00 95 1015.0
20260506130017 52 300 0.0 0.0 0.00 0.00 0.00 95 1015.0
20260506124516 52 300 0.0 0.0 0.00 0.00 0.00 95 1015.0
20260506123016 51 300 0.0 0.0 0.00 0.00 0.00 95 1014.9
20260506121515 51 300 0.0 0.0 0.00 0.00 0.00 95 1014.9
20260506120028 51 300 0.0 0.0 0.00 0.00 0.00 95 1014.8
20260506114511 51 300 0.0 0.0 0.00 0.00 0.00 95 1014.7
20260506113011 51 291 0.0 0.0 0.00 0.00 0.00 95 1014.7
20260506111509 51 291 0.0 0.0 0.00 0.00 0.00 95 1014.6
20260506110009 52 291 0.0 0.0 0.00 0.00 0.00 95 1014.4
20260506104505 52 291 0.0 0.0 0.00 0.00 0.00 95 1014.3
20260506103015 51 291 0.0 0.0 0.00 0.00 0.00 95 1014.2
20260506101504 52 5 0.0 0.0 0.00 0.00 0.00 95 1013.9
20260506100002 52 5 0.0 0.0 0.00 0.00 0.00 95 1013.9
20260506094604 52 5 0.0 0.0 0.00 0.00 0.00 95 1013.9
20260506093101 52 5 0.0 0.0 0.00 0.00 0.00 94 1013.9
20260506091604 52 5 0.0 0.0 0.00 0.00 0.00 94 1013.8
20260506090104 52 5 0.0 0.0 0.00 0.00 0.00 94 1013.7
20260506084629 52 5 0.0 0.0 0.00 0.00 0.00 94 1013.8
20260506083057 52 5 0.0 0.0 0.00 0.00 0.00 94 1013.8
20260506081600 52 5 0.0 0.0 0.00 0.00 0.00 94 1013.7
20260506073052 52 336 0.0 0.0 0.00 0.00 0.00 94 1013.7
20260506071551 52 336 0.0 0.0 0.00 0.00 0.00 94 1013.5
20260506061544 52 9 0.0 0.0 0.00 0.00 0.00 93 1012.9
20260506044539 53 12 0.0 0.0 0.00 0.00 0.00 93 1012.5
20260506043043 53 219 0.0 0.0 0.00 0.00 0.00 92 1012.3
20260506041534 53 5 0.0 0.0 0.00 0.00 0.00 92 1012.2
20260506040036 53 276 0.0 0.0 0.00 0.00 0.00 91 1012.0
20260506034532 53 248 0.0 0.0 0.00 0.00 0.00 91 1011.7
20260506033027 53 333 0.0 0.0 0.00 0.00 0.00 90 1011.6
20260506031532 54 329 0.0 0.0 0.00 0.00 0.00 90 1011.4
20260506030023 54 336 0.0 0.0 0.00 0.00 0.00 90 1011.2
20260506024522 54 281 0.0 0.0 0.00 0.00 0.00 90 1011.0
20260506023035 54 315 0.0 0.0 0.00 0.00 0.00 89 1010.9
20260506021532 55 280 0.0 0.0 0.00 0.00 0.00 89 1010.8
20260506020024 55 283 0.0 0.0 0.00 0.00 0.00 89 1010.8
20260506014519 55 263 0.0 0.0 0.00 0.00 0.00 88 1010.7
20260506013021 55 24 0.0 0.0 0.00 0.00 0.00 89 1010.7
20260506011516 55 349 0.0 0.0 0.00 0.00 0.00 88 1010.7
20260506010016 56 302 0.0 6.1 0.00 0.00 0.00 87 1010.5
20260506004515 56 250 0.0 0.0 0.00 0.00 0.00 87 1010.6
20260506003016 56 278 0.0 0.9 0.00 0.00 0.00 88 1010.6
20260506001514 56 222 0.0 1.7 0.00 0.00 0.00 88 1010.5
20260506000013 56 34 0.0 5.2 0.00 0.00 0.00 87 1010.5
20260505234514 57 49 0.0 4.3 0.00 0.00 0.00 87 1010.4
20260505233012 57 225 0.0 0.0 0.00 0.00 0.00 86 1010.5
20260505231525 58 190 0.0 0.0 0.00 0.00 0.00 85 1010.6
20260505230021 59 28 0.0 0.0 0.00 0.00 0.00 83 1010.6
20260505224513 59 28 0.0 0.0 0.00 0.00 0.00 84 1010.5
20260505223009 59 169 0.0 0.0 0.00 0.00 0.00 82 1010.6
20260505221508 61 257 0.0 0.0 0.00 0.00 0.00 82 1010.7
20260505220006 61 256 0.0 0.0 0.00 0.00 0.00 81 1010.6
20260505214507 61 214 0.0 0.0 0.00 0.00 0.00 79 1010.6
20260505213014 61 238 0.0 0.0 0.00 0.00 0.00 80 1010.6
20260505211509 62 167 0.0 0.0 0.00 0.00 0.00 80 1010.6
20260505210004 62 188 0.0 0.0 0.00 0.00 0.00 81 1010.6
20260505204503 61 178 0.0 0.0 0.00 0.00 0.00 80 1010.5
20260505203001 62 180 0.0 0.0 0.00 0.00 0.00 81 1010.6
20260505201500 62 217 0.0 0.0 0.00 0.00 0.00 79 1010.7
20260505200058 61 175 0.0 0.0 0.00 0.00 0.00 83 1010.6
20260505194555 60 205 0.0 0.0 0.00 0.01 0.00 83 1010.6
20260505193053 60 187 0.0 0.0 0.00 0.01 0.00 84 1010.7
20260505191602 60 200 0.0 2.6 0.00 0.01 0.00 85 1010.7
20260505190049 59 222 0.0 0.0 0.00 0.01 0.00 84 1010.6
20260505184546 59 154 0.0 0.0 0.00 0.02 0.00 84 1010.6
20260505183044 58 5 0.0 0.0 0.00 0.02 0.00 84 1010.6
20260505181545 58 26 0.0 2.6 0.00 0.02 0.00 87 1010.5
20260505180039 57 230 0.0 0.0 0.00 0.02 0.00 87 1010.4
20260505174541 56 344 0.0 0.0 0.00 0.02 0.00 87 1010.4
20260505173034 56 11 0.0 0.0 0.00 0.02 0.00 90 1010.3
20260505171533 56 347 0.0 0.0 0.00 0.02 0.00 90 1010.3
20260505170030 56 281 0.0 0.0 0.00 0.02 0.00 91 1010.3
20260505164529 55 205 0.0 0.0 0.00 0.03 0.00 92 1010.3
20260505163033 54 19 0.0 0.0 0.00 0.03 0.00 93 1010.1
20260505161526 54 355 0.0 0.9 0.00 0.03 0.00 94 1010.1
20260505153022 53 321 0.0 1.7 0.00 0.03 0.00 96 1010.0
20260505151521 52 281 0.0 0.0 0.00 0.03 0.00 96 1010.0